When you browse on this site, cookies collect data to enhance your experience and personalize the content and advertising you see.
Visit our Privacy Policy to learn more. By continuing to use the site, you agree to this use of cookies and data.
  • In Deutschland
  • Länderverzeichnis
  • Für 7 Tage
  • Wassertemperatur
  • Wetterkarte
  • Widgets
  • user-avatar
    Anmelden

    Stündliche Wetter Dortmund

    Heute, 27 Mai, Mittwoch

    Zeit Temperatur Niederschläge Wind Luftdruck Luftfeuchtigkeit
    00:00 +13°C° 0 mm 1 m/S 767 mmHg 81%
    01:00 +12°C° 0 mm 1 m/S 767 mmHg 81%
    02:00 +12°C° 0 mm 1 m/S 767 mmHg 82%
    03:00 +11°C° 0 mm 0 m/S 766 mmHg 82%
    04:00 +12°C° 0 mm 0 m/S 766 mmHg 77%
    05:00 +13°C° 0 mm 0 m/S 766 mmHg 72%
    06:00 +15°C° 0 mm 0 m/S 766 mmHg 67%
    07:00 +18°C° 0 mm 1 m/S 766 mmHg 61%
    08:00 +20°C° 0 mm 1 m/S 766 mmHg 55%
    09:00 +22°C° 0 mm 1 m/S 767 mmHg 49%
    10:00 +21°C° 0 mm 2 m/S 766 mmHg 47%
    11:00 +23°C° 0 mm 2 m/S 766 mmHg 46%
    12:00 +24°C° 0 mm 3 m/S 765 mmHg 44%
    13:00 +22°C° 0 mm 3 m/S 765 mmHg 47%
    14:00 +22°C° 0 mm 3 m/S 765 mmHg 50%
    15:00 +22°C° 0 mm 3 m/S 765 mmHg 53%
    16:00 +21°C° 0 mm 3 m/S 765 mmHg 58%
    17:00 +20°C° 0 mm 4 m/S 765 mmHg 63%
    18:00 +19°C° 0 mm 4 m/S 765 mmHg 68%
    19:00 +17°C° 0 mm 4 m/S 765 mmHg 69%
    20:00 +14°C° 0 mm 4 m/S 766 mmHg 71%
    21:00 +12°C° 0 mm 4 m/S 766 mmHg 72%
    22:00 +11°C° 0 mm 4 m/S 766 mmHg 72%
    23:00 +10°C° 0 mm 3 m/S 767 mmHg 73%

    Morgen, 28 Mai, Donnerstag

    Zeit Temperatur Niederschläge Wind Luftdruck Luftfeuchtigkeit
    00:00 +9°C° 0 mm 3 m/S 767 mmHg 73%
    01:00 +9°C° 0 mm 3 m/S 767 mmHg 77%
    02:00 +8°C° 0 mm 3 m/S 767 mmHg 80%
    03:00 +7°C° 0 mm 2 m/S 767 mmHg 84%
    04:00 +8°C° 0 mm 3 m/S 767 mmHg 80%
    05:00 +9°C° 0 mm 3 m/S 767 mmHg 76%
    06:00 +10°C° 0 mm 3 m/S 767 mmHg 73%
    07:00 +12°C° 0 mm 3 m/S 767 mmHg 65%
    08:00 +14°C° 0 mm 3 m/S 767 mmHg 58%
    09:00 +16°C° 0 mm 3 m/S 766 mmHg 51%
    10:00 +17°C° 0 mm 3 m/S 766 mmHg 47%
    11:00 +18°C° 0 mm 3 m/S 766 mmHg 44%
    12:00 +19°C° 0 mm 3 m/S 765 mmHg 41%
    13:00 +19°C° 0 mm 4 m/S 765 mmHg 42%
    14:00 +19°C° 0 mm 4 m/S 765 mmHg 43%
    15:00 +19°C° 0 mm 4 m/S 764 mmHg 44%
    16:00 +18°C° 0 mm 4 m/S 764 mmHg 49%
    17:00 +17°C° 0 mm 4 m/S 764 mmHg 53%
    18:00 +15°C° 0 mm 4 m/S 764 mmHg 58%
    19:00 +14°C° 0 mm 3 m/S 764 mmHg 64%
    20:00 +12°C° 0 mm 3 m/S 764 mmHg 70%
    21:00 +10°C° 0 mm 2 m/S 764 mmHg 76%
    22:00 +9°C° 0 mm 2 m/S 764 mmHg 78%
    23:00 +8°C° 0 mm 2 m/S 764 mmHg 80%

    übermorgen, 29 Mai, Freitag

    Zeit Temperatur Niederschläge Wind Luftdruck Luftfeuchtigkeit
    00:00 +7°C° 0 mm 2 m/S 764 mmHg 83%
    01:00 +7°C° 0 mm 2 m/S 764 mmHg 84%
    02:00 +7°C° 0 mm 2 m/S 764 mmHg 84%
    03:00 +7°C° 0 mm 1 m/S 764 mmHg 85%
    04:00 +7°C° 0 mm 2 m/S 763 mmHg 82%
    05:00 +9°C° 0 mm 2 m/S 763 mmHg 78%
    06:00 +10°C° 0 mm 2 m/S 763 mmHg 75%
    07:00 +13°C° 0 mm 2 m/S 763 mmHg 68%
    08:00 +14°C° 0 mm 3 m/S 763 mmHg 61%
    09:00 +17°C° 0 mm 3 m/S 763 mmHg 54%
    10:00 +18°C° 0 mm 3 m/S 762 mmHg 50%
    11:00 +19°C° 0 mm 3 m/S 762 mmHg 46%
    12:00 +20°C° 0 mm 4 m/S 762 mmHg 42%
    13:00 +20°C° 0 mm 4 m/S 761 mmHg 41%
    14:00 +21°C° 0 mm 4 m/S 761 mmHg 40%
    15:00 +21°C° 0 mm 4 m/S 760 mmHg 39%
    16:00 +20°C° 0 mm 4 m/S 760 mmHg 44%
    17:00 +19°C° 0 mm 4 m/S 760 mmHg 49%
    18:00 +18°C° 0 mm 3 m/S 760 mmHg 54%
    19:00 +17°C° 0 mm 3 m/S 760 mmHg 59%
    20:00 +14°C° 0 mm 3 m/S 761 mmHg 65%
    21:00 +14°C° 0 mm 2 m/S 761 mmHg 70%
    22:00 +13°C° 0 mm 2 m/S 761 mmHg 72%
    23:00 +12°C° 0 mm 2 m/S 761 mmHg 74%

    30 Mai, Samstag

    Zeit Temperatur Niederschläge Wind Luftdruck Luftfeuchtigkeit
    00:00 +11°C° 0 mm 1 m/S 761 mmHg 77%
    01:00 +11°C° 0 mm 1 m/S 761 mmHg 77%
    02:00 +11°C° 0 mm 1 m/S 761 mmHg 78%
    03:00 +10°C° 0 mm 1 m/S 761 mmHg 79%
    04:00 +12°C° 0 mm 1 m/S 761 mmHg 74%
    05:00 +13°C° 0 mm 1 m/S 761 mmHg 68%
    06:00 +15°C° 0 mm 1 m/S 761 mmHg 63%
    07:00 +16°C° 0 mm 1 m/S 761 mmHg 58%
    08:00 +18°C° 0 mm 2 m/S 761 mmHg 52%
    09:00 +19°C° 0 mm 2 m/S 760 mmHg 47%
    10:00 +20°C° 0 mm 2 m/S 760 mmHg 45%
    11:00 +21°C° 0 mm 2 m/S 760 mmHg 44%
    12:00 +21°C° 0 mm 3 m/S 759 mmHg 42%
    13:00 +21°C° 0 mm 3 m/S 759 mmHg 45%
    14:00 +21°C° 0 mm 3 m/S 759 mmHg 47%
    15:00 +21°C° 0 mm 3 m/S 758 mmHg 49%
    16:00 +20°C° 0 mm 3 m/S 758 mmHg 53%
    17:00 +19°C° 0 mm 3 m/S 758 mmHg 57%
    18:00 +19°C° 0 mm 2 m/S 758 mmHg 61%
    19:00 +17°C° 0 mm 2 m/S 758 mmHg 67%
    20:00 +15°C° 0 mm 2 m/S 758 mmHg 73%
    21:00 +14°C° 0 mm 2 m/S 759 mmHg 79%
    22:00 +13°C° 0 mm 2 m/S 759 mmHg 82%
    23:00 +13°C° 0 mm 2 m/S 758 mmHg 85%

    31 Mai, Sonntag

    Zeit Temperatur Niederschläge Wind Luftdruck Luftfeuchtigkeit
    00:00 +12°C° 0 mm 1 m/S 758 mmHg 88%
    01:00 +12°C° 0 mm 1 m/S 758 mmHg 88%
    02:00 +12°C° 0 mm 1 m/S 758 mmHg 88%
    03:00 +12°C° 0 mm 1 m/S 758 mmHg 89%
    04:00 +13°C° 0 mm 1 m/S 758 mmHg 83%
    05:00 +14°C° 0 mm 2 m/S 758 mmHg 77%
    06:00 +15°C° 0 mm 2 m/S 758 mmHg 72%
    07:00 +16°C° 0 mm 2 m/S 758 mmHg 62%
    08:00 +17°C° 0 mm 3 m/S 758 mmHg 53%
    09:00 +19°C° 0 mm 3 m/S 758 mmHg 44%
    10:00 +20°C° 0 mm 3 m/S 757 mmHg 43%
    11:00 +20°C° 0 mm 3 m/S 757 mmHg 42%
    12:00 +21°C° 0 mm 3 m/S 757 mmHg 42%
    13:00 +21°C° 0 mm 3 m/S 757 mmHg 43%
    14:00 +21°C° 0 mm 3 m/S 757 mmHg 45%
    15:00 +21°C° 0 mm 3 m/S 756 mmHg 47%
    16:00 +20°C° 0.1 mm 3 m/S 756 mmHg 53%
    17:00 +18°C° 0.1 mm 4 m/S 756 mmHg 60%
    18:00 +17°C° 0.1 mm 4 m/S 756 mmHg 66%
    19:00 +16°C° 0 mm 3 m/S 756 mmHg 70%
    20:00 +13°C° 0 mm 3 m/S 756 mmHg 73%
    21:00 +12°C° 0 mm 3 m/S 757 mmHg 76%
    22:00 +12°C° 0 mm 2 m/S 757 mmHg 78%
    23:00 +12°C° 0 mm 2 m/S 756 mmHg 80%

    1 Juni, Montag

    Zeit Temperatur Niederschläge Wind Luftdruck Luftfeuchtigkeit
    00:00 +12°C° 0 mm 2 m/S 756 mmHg 83%
    01:00 +10°C° 0 mm 2 m/S 756 mmHg 85%
    02:00 +10°C° 0 mm 1 m/S 756 mmHg 87%
    03:00 +10°C° 0 mm 1 m/S 756 mmHg 89%
    04:00 +11°C° 0 mm 1 m/S 756 mmHg 84%
    05:00 +13°C° 0 mm 1 m/S 756 mmHg 79%
    06:00 +14°C° 0 mm 1 m/S 756 mmHg 74%
    07:00 +16°C° 0 mm 1 m/S 756 mmHg 67%
    08:00 +19°C° 0 mm 1 m/S 756 mmHg 60%
    09:00 +21°C° 0 mm 1 m/S 756 mmHg 53%
    10:00 +22°C° 0 mm 1 m/S 756 mmHg 50%
    11:00 +23°C° 0 mm 2 m/S 756 mmHg 47%
    12:00 +24°C° 0 mm 2 m/S 755 mmHg 43%
    13:00 +24°C° 0 mm 2 m/S 755 mmHg 45%
    14:00 +24°C° 0 mm 3 m/S 755 mmHg 46%
    15:00 +24°C° 0 mm 3 m/S 754 mmHg 47%
    16:00 +24°C° 0 mm 3 m/S 754 mmHg 52%
    17:00 +22°C° 0 mm 3 m/S 754 mmHg 57%
    18:00 +23°C° 0 mm 2 m/S 754 mmHg 62%
    19:00 +20°C° 0 mm 2 m/S 754 mmHg 68%
    20:00 +19°C° 0 mm 3 m/S 754 mmHg 75%
    21:00 +17°C° 0 mm 3 m/S 755 mmHg 82%
    22:00 +17°C° 0 mm 2 m/S 754 mmHg 83%
    23:00 +16°C° 0 mm 2 m/S 754 mmHg 84%
    Mehr zeigen